Location: Black Swamp Observatory
(41.3920°N, 84.1250°W)
Time: 23:18:27
(UTC-04:00)

Amateur Radio Satellites - All Passes

Search period start: 30 July 2014 22:48
Search period end: 31 July 2014 22:48
Location: Black Swamp Observatory, 41.3920°N, 84.1250°W

Satellite Date Start Highest point End Downlink Frequencies (MHz)
Time Altitude Azimuth
ISS 30 Jul 22:52:36 22:55:03 19° 132° (SE) 22:57:31 145.800 FM
HO-68 30 Jul 22:55:20 23:01:37 33° 264° (W) 23:07:57 435.675 MHz FM
Oscar 11 30 Jul 23:16:44 23:20:34 31° 263° (W) 23:24:25 145.825 FM, Beacon 2401.500 USB
SO-50 30 Jul 23:33:17 23:34:42 11° 253° (WSW) 23:36:07 436.795 FM
RS-15 30 Jul 23:35:23 23:46:25 77° 242° (WSW) 23:57:52 29.354 - 29.394 USB, Beacon 29.352 USB
UOSAT-12 30 Jul 23:40:15 23:45:00 81° 57° (ENE) 23:49:41 437.025 FM, 437.400 FM
FUNcube-1 30 Jul 23:43:22 23:47:29 43° 261° (W) 23:51:31 145.950 - 145.970 MHz USB
Sapphire 30 Jul 23:47:14 23:48:52 11° 102° (ESE) 23:50:31 437.095 MHz 1200 baud AX-25 AFSK
PCSat 31 Jul 00:17:20 00:21:39 25° 108° (ESE) 00:26:00 145.825 MHz
ISS 31 Jul 00:28:15 00:31:31 51° 329° (NNW) 00:34:48 145.800 FM
UOSAT-12 31 Jul 01:22:52 01:24:28 12° 253° (WSW) 01:26:03 437.025 FM, 437.400 FM
Sapphire 31 Jul 01:26:02 01:31:27 89° 117° (ESE) 01:36:54 437.095 MHz 1200 baud AX-25 AFSK
Oscar 19 31 Jul 01:50:22 01:51:50 11° 88° (E) 01:53:19 437.125 CW, 437.150 USB
RS-15 31 Jul 01:50:35 01:56:54 17° 262° (W) 02:03:21 29.354 - 29.394 USB, Beacon 29.352 USB
PCSat 31 Jul 01:59:34 02:04:46 47° 305° (NW) 02:10:01 145.825 MHz
ISS 31 Jul 02:06:33 02:08:49 17° 348° (NNW) 02:11:06 145.800 FM
Oscar 10/S400 31 Jul 02:15:40 02:55:11 63° 190° (S) 11:47:26 145.825 - 145.975 CW/USB, Beacon 145.810 USB
Oscar 16 31 Jul 02:16:59 02:21:00 22° 94° (E) 02:25:00 437.025 USB, Beacon 2401.1428
JAS-1B 31 Jul 02:19:04 02:21:26 11° 78° (ENE) 02:23:43 435.800 - 435.900 CW/SSB
ITAMSAT 1 31 Jul 02:42:52 02:46:09 17° 91° (E) 02:49:24 435.822 SSB
Uribyol 2 31 Jul 03:00:57 03:05:17 27° 95° (E) 03:09:35 436.500 FM
AO-27 31 Jul 03:01:52 03:06:11 26° 95° (E) 03:10:28 436.795 MHz FM
Sapphire 31 Jul 03:12:11 03:15:38 17° 318° (NW) 03:19:06 437.095 MHz 1200 baud AX-25 AFSK
AO-Echo 31 Jul 03:26:23 03:31:15 46° 99° (E) 03:35:54 ?
Oscar 19 31 Jul 03:26:37 03:31:48 85° 285° (WNW) 03:37:00 437.125 CW, 437.150 USB
Gurwin Techsat 1B 31 Jul 03:36:26 03:40:38 23° 94° (E) 03:44:48 435.225 FM
ISS 31 Jul 03:44:24 03:46:32 16° 9° (N) 03:48:40 145.800 FM
OPAL 31 Jul 03:52:19 03:56:30 28° 64° (ENE) 04:00:43 ?
Oscar 16 31 Jul 03:55:38 04:00:32 44° 290° (WNW) 04:05:25 437.025 USB, Beacon 2401.1428
JAS-1B 31 Jul 04:04:50 04:14:05 64° 100° (E) 04:21:51 435.800 - 435.900 CW/SSB
ITAMSAT 1 31 Jul 04:20:56 04:26:01 59° 288° (WNW) 04:31:04 435.822 SSB
AO-7 31 Jul 04:39:35 04:45:19 20° 91° (E) 04:51:00 29.400 - 29.500 MHz
Uribyol 2 31 Jul 04:40:06 04:44:49 37° 292° (WNW) 04:49:31 436.500 FM
AO-27 31 Jul 04:41:00 04:45:46 38° 291° (WNW) 04:50:31 436.795 MHz FM
TMSAT-1 31 Jul 04:49:38 04:54:58 81° 103° (ESE) 05:00:15 436.925 FM
AO-Echo 31 Jul 05:05:55 05:09:39 21° 296° (WNW) 05:13:18 ?
Oscar 19 31 Jul 05:08:44 05:10:20 11° 302° (WNW) 05:11:56 437.125 CW, 437.150 USB
Gurwin Techsat 1B 31 Jul 05:15:45 05:20:47 44° 290° (WNW) 05:25:46 435.225 FM
ISS 31 Jul 05:20:45 05:23:57 40° 28° (NNE) 05:27:08 145.800 FM
Uosat F 31 Jul 05:25:18 05:29:58 38° 98° (E) 05:34:36 435.120 FM
OPAL 31 Jul 05:30:50 05:35:17 34° 261° (W) 05:39:46 ?
JAS-1B 31 Jul 05:55:56 06:03:51 33° 302° (WNW) 06:10:52 435.800 - 435.900 CW/SSB
KITSAT 1 31 Jul 05:58:08 06:05:27 39° 109° (ESE) 06:12:47 435.175 FM
STRAND 1 31 Jul 06:19:51 06:23:26 20° 63° (ENE) 06:27:02 ?
Hamsat 31 Jul 06:22:28 06:23:26 11° 89° (E) 06:24:25 145.90 MHz
AO-7 31 Jul 06:30:38 06:39:00 84° 290° (WNW) 06:47:17 29.400 - 29.500 MHz
TMSAT-1 31 Jul 06:31:30 06:34:11 14° 301° (WNW) 06:36:51 436.925 FM
MaSat-1 31 Jul 06:31:37 06:36:37 40° 57° (ENE) 06:41:21 437.345 MHz
PANSAT 31 Jul 06:40:10 06:41:40 12° 183° (S) 06:43:10 not established
Saudisat 1A 31 Jul 06:52:48 06:55:33 16° 110° (ESE) 06:58:19 436.775 MHz
ISS 31 Jul 06:57:41 07:00:33 26° 225° (SW) 07:03:25 145.800 FM
JAS-2 31 Jul 06:57:57 07:02:26 23° 91° (E) 07:06:37 435.800 - 435.900 CW/SSB, 435.910 FM
Uosat F 31 Jul 07:04:29 07:08:33 26° 295° (WNW) 07:12:37 435.120 FM
KITSAT 1 31 Jul 07:52:50 08:00:39 51° 309° (NW) 08:08:31 435.175 FM
Hamsat 31 Jul 07:55:32 07:59:50 67° 285° (WNW) 08:04:08 145.90 MHz
STRAND 1 31 Jul 07:57:10 08:02:12 54° 259° (W) 08:07:16 ?
MaSat-1 31 Jul 08:09:21 08:13:45 28° 256° (WSW) 08:17:54 437.345 MHz
SO-67 31 Jul 08:21:10 08:24:21 33° 97° (E) 08:27:30 435.3500 MHz FM
AO-7 31 Jul 08:25:01 08:30:36 20° 310° (NW) 08:36:11 29.400 - 29.500 MHz
Saudisat 1A 31 Jul 08:30:23 08:34:42 54° 307° (NW) 08:39:04 436.775 MHz
Sapphire 31 Jul 08:32:15 08:35:02 14° 39° (NE) 08:37:48 437.095 MHz 1200 baud AX-25 AFSK
JAS-2 31 Jul 08:42:19 08:47:52 45° 292° (WNW) 08:52:55 435.800 - 435.900 CW/SSB, 435.910 FM
PCSat 31 Jul 09:04:29 09:08:50 24° 47° (NE) 09:13:09 145.825 MHz
KITSAT 1 31 Jul 09:53:24 09:58:15 17° 334° (NNW) 10:03:07 435.175 FM
SO-67 31 Jul 09:55:13 09:57:08 14° 293° (WNW) 09:59:02 435.3500 MHz FM
Sapphire 31 Jul 10:14:01 10:19:27 72° 59° (ENE) 10:24:51 437.095 MHz 1200 baud AX-25 AFSK
UKube-1 31 Jul 10:21:38 10:25:25 28° 97° (E) 10:29:09 145.840 MHz, 145.915 MHz
HO-68 31 Jul 10:21:47 10:28:41 49° 100° (E) 10:35:32 435.675 MHz FM
PCSat 31 Jul 10:47:17 10:52:37 57° 246° (WSW) 10:57:54 145.825 MHz
Oscar 11 31 Jul 11:03:46 11:07:56 44° 99° (E) 11:12:05 145.825 FM, Beacon 2401.500 USB
FUNcube-1 31 Jul 11:32:21 11:36:08 32° 97° (E) 11:39:58 145.950 - 145.970 MHz USB
RS-15 31 Jul 11:53:29 11:58:49 15° 97° (E) 12:04:05 29.354 - 29.394 USB, Beacon 29.352 USB
KITSAT 1 31 Jul 11:55:48 11:57:55 11° 6° (N) 12:00:02 435.175 FM
UKube-1 31 Jul 11:57:55 12:01:31 26° 293° (WNW) 12:05:06 145.840 MHz, 145.915 MHz
Sapphire 31 Jul 11:59:07 12:02:14 16° 256° (WSW) 12:05:20 437.095 MHz 1200 baud AX-25 AFSK
SO-50 31 Jul 12:05:53 12:09:36 26° 113° (ESE) 12:13:22 436.795 FM
HO-68 31 Jul 12:09:55 12:16:08 34° 298° (WNW) 12:22:20 435.675 MHz FM
Oscar 11 31 Jul 12:40:56 12:43:46 17° 295° (WNW) 12:46:37 145.825 FM, Beacon 2401.500 USB
JAS-1B 31 Jul 13:02:18 13:07:10 15° 46° (NE) 13:12:08 435.800 - 435.900 CW/SSB
Oscar 19 31 Jul 13:06:32 13:09:55 18° 62° (ENE) 13:13:19 437.125 CW, 437.150 USB
FUNcube-1 31 Jul 13:09:13 13:12:22 21° 293° (WNW) 13:15:32 145.950 - 145.970 MHz USB
Oscar 16 31 Jul 13:33:59 13:38:31 33° 68° (ENE) 13:43:04 437.025 USB, Beacon 2401.1428
SO-50 31 Jul 13:45:52 13:50:00 35° 311° (NW) 13:54:13 436.795 FM
KITSAT 1 31 Jul 13:50:46 13:57:02 24° 36° (NE) 14:03:16 435.175 FM
UOSAT-12 31 Jul 13:52:21 13:55:59 24° 112° (ESE) 13:59:41 437.025 FM, 437.400 FM
RS-15 31 Jul 13:58:02 14:09:05 72° 117° (ESE) 14:19:56 29.354 - 29.394 USB, Beacon 29.352 USB
ITAMSAT 1 31 Jul 14:00:39 14:04:58 27° 66° (ENE) 14:09:18 435.822 SSB
Uribyol 2 31 Jul 14:18:46 14:23:37 41° 69° (ENE) 14:28:28 436.500 FM
AO-27 31 Jul 14:19:56 14:24:47 41° 69° (ENE) 14:29:39 436.795 MHz FM
TMSAT-1 31 Jul 14:33:10 14:36:29 17° 61° (ENE) 14:39:49 436.925 FM
AO-Echo 31 Jul 14:38:43 14:43:57 62° 73° (ENE) 14:49:12 ?
Oscar 19 31 Jul 14:43:45 14:48:47 58° 259° (W) 14:53:51 437.125 CW, 437.150 USB
JAS-1B 31 Jul 14:46:37 14:55:26 57° 67° (ENE) 15:05:01 435.800 - 435.900 CW/SSB
Gurwin Techsat 1B 31 Jul 14:57:27 15:02:17 37° 68° (ENE) 15:07:09 435.225 FM
Oscar 16 31 Jul 15:13:24 15:17:51 30° 264° (W) 15:22:19 437.025 USB, Beacon 2401.1428
Saudisat 1A 31 Jul 15:18:25 15:21:24 17° 41° (NE) 15:24:21 436.775 MHz
UOSAT-12 31 Jul 15:31:30 15:35:53 42° 309° (NW) 15:40:21 437.025 FM, 437.400 FM
AO-7 31 Jul 15:38:31 15:45:30 31° 57° (ENE) 15:52:29 29.400 - 29.500 MHz
ITAMSAT 1 31 Jul 15:39:27 15:44:17 38° 262° (W) 15:49:08 435.822 SSB
KITSAT 1 31 Jul 15:45:35 15:53:44 82° 59° (ENE) 16:01:48 435.175 FM
Uribyol 2 31 Jul 15:59:03 16:03:13 24° 266° (W) 16:07:24 436.500 FM
AO-27 31 Jul 16:00:11 16:04:25 25° 265° (W) 16:08:40 436.795 MHz FM
TMSAT-1 31 Jul 16:10:35 16:15:51 66° 258° (WSW) 16:21:08 436.925 FM
RS-15 31 Jul 16:12:16 16:22:19 38° 322° (NW) 16:32:20 29.354 - 29.394 USB, Beacon 29.352 USB
AO-Echo 31 Jul 16:19:43 16:23:06 17° 269° (W) 16:26:30 ?
Gurwin Techsat 1B 31 Jul 16:37:48 16:42:18 28° 265° (W) 16:46:50 435.225 FM
JAS-1B 31 Jul 16:37:51 16:46:07 39° 267° (W) 16:55:10 435.800 - 435.900 CW/SSB
Uosat F 31 Jul 16:38:30 16:43:24 54° 71° (ENE) 16:48:19 435.120 FM
Saudisat 1A 31 Jul 16:57:02 17:01:25 66° 240° (WSW) 17:05:46 436.775 MHz
JAS-2 31 Jul 17:10:46 17:15:01 16° 57° (ENE) 17:19:05 435.800 - 435.900 CW/SSB, 435.910 FM
AO-7 31 Jul 17:29:26 17:37:43 65° 256° (WSW) 17:46:03 29.400 - 29.500 MHz
OPAL 31 Jul 17:39:44 17:44:47 60° 103° (ESE) 17:49:52 ?
KITSAT 1 31 Jul 17:42:33 17:48:10 21° 257° (WSW) 17:53:46 435.175 FM
Uosat F 31 Jul 18:19:09 18:22:30 18° 268° (W) 18:25:52 435.120 FM
RS-15 31 Jul 18:31:24 18:39:02 20° 356° (N) 18:46:42 29.354 - 29.394 USB, Beacon 29.352 USB
Hamsat 31 Jul 18:48:46 18:52:57 86° 76° (ENE) 18:57:11 145.90 MHz
JAS-2 31 Jul 18:51:19 18:59:04 77° 74° (ENE) 19:06:15 435.800 - 435.900 CW/SSB, 435.910 FM
SO-67 31 Jul 18:56:06 18:57:38 13° 66° (ENE) 18:59:09 435.3500 MHz FM
OPAL 31 Jul 19:19:48 19:23:12 18° 300° (WNW) 19:26:37 ?
AO-7 31 Jul 19:30:27 19:32:01 11° 274° (W) 19:33:36 29.400 - 29.500 MHz
STRAND 1 31 Jul 20:07:41 20:12:40 50° 100° (E) 20:17:35 ?
MaSat-1 31 Jul 20:24:42 20:26:58 14° 99° (E) 20:29:24 437.345 MHz
SO-67 31 Jul 20:27:06 20:30:21 38° 262° (W) 20:33:37 435.3500 MHz FM
SO-50 31 Jul 20:36:44 20:40:53 29° 47° (NE) 20:45:03 436.795 FM
JAS-2 31 Jul 20:38:57 20:44:33 22° 269° (W) 20:49:56 435.800 - 435.900 CW/SSB, 435.910 FM
RS-15 31 Jul 20:46:54 20:56:20 31° 31° (NNE) 21:05:56 29.354 - 29.394 USB, Beacon 29.352 USB
HO-68 31 Jul 20:50:34 20:57:01 38° 63° (ENE) 21:03:28 435.675 MHz FM
UKube-1 31 Jul 21:17:27 21:21:05 26° 67° (ENE) 21:24:44 145.840 MHz, 145.915 MHz
STRAND 1 31 Jul 21:47:46 21:51:28 21° 297° (WNW) 21:55:10 ?
Oscar 11 31 Jul 21:59:00 22:02:54 35° 71° (ENE) 22:06:50 145.825 FM, Beacon 2401.500 USB
MaSat-1 31 Jul 21:59:27 22:03:34 55° 300° (WNW) 22:08:19 437.345 MHz
ISS 31 Jul 22:05:30 22:06:26 11° 129° (SE) 22:07:21 145.800 FM
SO-50 31 Jul 22:17:06 22:21:32 39° 244° (WSW) 22:26:00 436.795 FM
UOSAT-12 31 Jul 22:21:13 22:25:08 25° 45° (NE) 22:29:00 437.025 FM, 437.400 FM
FUNcube-1 31 Jul 22:29:14 22:32:52 28° 69° (ENE) 22:36:27 145.950 - 145.970 MHz USB
